Weather in Zuunmod

Mongolia     47°42′10″N   106°57′02″E
temp.,
°C
wind,
m/s
gust,
m/s
humid.,
%
clouds,
%
prec.,
mm/h
press.,
hPa
HPBL,
m
20 june, sun
sun2023:00+11nnw22597 0.0 100611
02:00+10nne32595 0.0 100616
05:00+9ne11615 0.0 100610
08:00+15ene11465 0.0 1006171
11:00+20wnw123316 0.0 10051581
14:00+22nw342956 0.0 10032907
17:00+23nw332711 0.0 10022677
20:00+18nne223910 0.0 100311
21 june, mon
mon2123:00+15ssw2251100 0.1 100624
02:00+13ese4659100 0.1 1007132
05:00+12ese376899 0.0 1009430
08:00+13e347099 0.1 1009252
11:00+17sse71052100 0.0 10081231
14:00+20sse7842100 0.0 10061827
17:00+20sse7103985 0.0 10051603
20:00+18ese4849100 0.1 1005176
22 june, tue
tue2223:00+15ese51158100 0.3 1007573
02:00+12ese376899 0.3 1008236
05:00+11ese347687 0.0 100888
08:00+16ese5105496 0.1 1007772
11:00+18ese684696 0.0 10061061
14:00+20s6644100 0.1 10051727
17:00+20sse554698 0.0 10051294
20:00+15wnw2273100 0.1 100880
23 june, wed
wed2323:00+12nne1184100 0.1 100810
02:00+12nnw11865 0.1 100810
05:00+10nne11888 0.0 100910
08:00+15nw127023 0.0 1009281
11:00+21wsw014584 0.0 10071344
14:00+22wsw334194 0.0 10061999
17:00+23wnw124016 0.0 10051625
20:00+20wnw115489 0.0 100511
24 june, thu
thu2423:00+16e226098 0.0 100611
02:00+15ene2264100 0.0 100611
05:00+16ese345780 0.0 100674
08:00+20se3644100 0.0 1005420
11:00+19ese4845100 0.1 1005607
14:00+26sse662612 0.1 10022924
17:00+27sse45233 0.0 10013256
20:00+22sw114673 0.0 100313